Location: PSU-Greenbush Astrophysical Observatory
(37.5140°N, 94.9880°W)
Time: 14:50:38
(UTC-06:00)

deb Explorer IX - Pass Details

Date: 30 January 2020
Orbit: 549 x 1099 km, 38.8° (Epoch: 22 February)

Event Time Altitude Azimuth Distance (km) Brightness Sun altitude
Rises 20:01:10 0° 246° (WSW) 3,414 ? -27.8°
Reaches altitude 10° 20:03:34 10° 244° (WSW) 2,558 ? -28.3°
Enters shadow 20:09:41 73° 168° (SSE) 1,027 ? -29.5°
Maximum altitude 20:09:46 74° 161° (SSE) 1,027 - -29.5°
Drops below altitude 10° 20:16:49 10° 78° (ENE) 2,887 - -30.9°
Sets 20:19:40 0° 76° (ENE) 3,880 - -31.5°
